Weather reports worldwide

Advertisment
La Hague, France (7020): temperature & dewpoint: 08.07.2020 11:00:00 - 14.07.2020 11:00:00 (CEST)La Hague, France (7020): wind speed & gusts: 08.07.2020 11:00:00 - 14.07.2020 11:00:00 (CEST)La Hague, France (7020): wind direction: 08.07.2020 11:00:00 - 14.07.2020 11:00:00 (CEST)La Hague, France (7020): reduced air pressure: 08.07.2020 11:00:00 - 14.07.2020 11:00:00 (CEST)La Hague, France (7020): visibility: 08.07.2020 11:00:00 - 14.07.2020 11:00:00 (CEST)La Hague, France (7020): precipitation: 08.07.2020 11:00:00 - 14.07.2020 11:00:00 (CEST)
Date & Time tt [°C] td [°C] ff [km/h] ff [kn] fx [km/h] fx [kn] dd ppp [hPa] vv [km] rr [mm]
14.07.2020 11:00:00 16,2 15,6 10 6 16 8 WNW 1018,5 10 0,0
14.07.2020 10:00:00 16,1 15,6 13 7 21 11 WNW 1018,4 - 0,0
14.07.2020 09:00:00 15,9 15,4 13 7 19 11 W 1018,2 - 0,0
14.07.2020 08:00:00 15,8 15,3 16 9 24 13 WNW 1018,3 10 0,0
14.07.2020 07:00:00 15,8 15,5 15 8 24 13 W 1018,2 - 0,0
14.07.2020 06:00:00 15,9 15,4 17 9 27 15 W 1018,4 - 0,0
14.07.2020 05:00:00 15,7 15,4 19 10 30 16 W 1018,6 12 0,0
14.07.2020 04:00:00 16,1 15,8 21 11 33 18 W 1019,1 - 0,0
14.07.2020 03:00:00 16,2 15,7 24 13 35 19 WSW 1019,4 - 0,2
14.07.2020 02:00:00 15,9 15,3 24 13 34 18 SW 1020,2 15 0,4
14.07.2020 01:00:00 15,5 14,2 23 12 33 18 SW 1020,7 - 0,8
14.07.2020 00:00:00 15,8 13,5 19 11 24 13 SW 1021,2 - 0,0
13.07.2020 23:00:00 16,4 13,7 16 9 21 11 SW 1021,8 18 0,0
13.07.2020 22:00:00 16,5 13,4 13 7 18 10 SW 1021,9 - 0,0
13.07.2020 21:00:00 16,7 12,8 12 6 17 9 SW 1022,3 - 0,0
13.07.2020 20:00:00 17,4 13,7 12 6 18 10 W 1023,0 18 0,0
13.07.2020 19:00:00 18,7 14,2 12 6 16 9 W 1023,2 - 0,0
13.07.2020 18:00:00 18,6 13,9 11 6 16 9 WSW 1023,7 - 0,0
13.07.2020 17:00:00 18,3 14,6 9 5 14 8 WSW 1024,2 18 0,0
13.07.2020 16:00:00 19,0 14,3 12 6 16 9 SW 1024,6 - 0,0
13.07.2020 15:00:00 18,4 11,2 10 5 13 7 SW 1024,9 - 0,0
13.07.2020 14:00:00 18,2 14,3 6 4 10 5 W 1025,6 16 0,0
13.07.2020 13:00:00 17,9 14,4 8 5 10 6 NNW 1026,1 - 0,0
13.07.2020 12:00:00 17,8 15,1 7 4 11 6 N 1026,5 - 0,0
13.07.2020 11:00:00 17,6 14,9 6 3 9 5 N 1026,6 18 0,0
13.07.2020 10:00:00 17,5 14,8 4 2 7 4 N 1026,6 - 0,0
13.07.2020 09:00:00 17,0 13,5 5 3 9 5 N 1026,5 - 0,0
13.07.2020 08:00:00 15,9 13,9 4 2 5 3 ESE 1026,0 20 0,0
13.07.2020 07:00:00 11,6 10,7 2 1 5 3 SE 1026,1 - 0,0
13.07.2020 06:00:00 10,6 9,8 3 2 5 3 SE 1026,0 - 0,0
13.07.2020 05:00:00 11,4 10,5 4 2 6 3 SE 1026,4 20 0,2
13.07.2020 04:00:00 11,4 10,0 5 3 13 7 E 1026,9 - 0,0
13.07.2020 03:00:00 15,0 13,2 11 6 15 8 N 1027,1 - 0,0
13.07.2020 02:00:00 11,5 9,7 0 0 5 3 N 1027,4 20 0,0
13.07.2020 01:00:00 13,8 12,2 0 0 5 3 N 1027,5 - 0,0
13.07.2020 00:00:00 12,8 11,2 0 0 12 6 N 1027,5 - 0,0
12.07.2020 23:00:00 14,0 12,2 3 2 13 7 NE 1027,2 20 0,0
12.07.2020 22:00:00 15,8 13,8 11 6 14 8 N 1027,1 - 0,0
12.07.2020 21:00:00 16,8 14,1 8 4 14 8 NE 1027,1 - 0,0
12.07.2020 20:00:00 17,4 14,1 10 6 16 9 NE 1027,1 20 0,0
12.07.2020 19:00:00 17,8 14,5 11 6 15 8 ENE 1027,4 - 0,0
12.07.2020 18:00:00 18,3 15,2 10 5 17 9 NE 1027,8 - 0,0
12.07.2020 17:00:00 18,3 15,0 14 7 18 10 ENE 1028,1 20 0,0
12.07.2020 16:00:00 18,9 15,6 12 6 18 10 NE 1028,4 - 0,0
12.07.2020 15:00:00 18,2 14,7 14 7 19 11 NE 1028,3 - 0,0
12.07.2020 14:00:00 18,5 15,2 13 7 18 10 NE 1028,6 20 0,0
12.07.2020 13:00:00 18,3 14,8 11 6 16 9 ENE 1028,7 - 0,0
12.07.2020 12:00:00 18,1 13,6 13 7 23 13 ENE 1028,6 - 0,0
12.07.2020 11:00:00 17,9 12,3 9 5 12 7 NE 1028,7 20 0,0
12.07.2020 10:00:00 18,8 12,3 5 3 8 4 NE 1028,7 - 0,0
12.07.2020 09:00:00 17,7 12,4 4 2 10 6 E 1028,4 - 0,0
12.07.2020 08:00:00 15,5 13,3 6 4 13 7 ESE 1027,8 20 0,0
12.07.2020 07:00:00 11,7 10,1 9 5 12 7 E 1027,6 - 0,0
12.07.2020 06:00:00 10,5 9,1 7 4 12 7 E 1027,4 - 0,0
12.07.2020 05:00:00 10,6 9,4 7 4 11 6 ESE 1027,5 18 0,0
12.07.2020 04:00:00 10,5 9,4 10 5 11 6 ESE 1027,6 - 0,0
12.07.2020 03:00:00 10,8 9,6 8 4 12 7 ESE 1027,8 - 0,0
12.07.2020 02:00:00 11,3 10,0 9 5 11 6 ESE 1027,9 18 0,0
12.07.2020 01:00:00 10,8 8,9 5 3 8 4 ENE 1028,3 - 0,0
12.07.2020 00:00:00 13,2 10,6 4 2 10 6 NE 1028,4 - 0,0
11.07.2020 23:00:00 14,9 11,3 8 4 13 7 N 1028,4 20 0,0
11.07.2020 22:00:00 15,5 11,1 5 3 9 5 NNW 1028,0 - 0,0
11.07.2020 21:00:00 16,5 11,4 5 3 9 5 NNW 1027,8 - 0,0
11.07.2020 20:00:00 17,0 10,8 6 4 9 5 NNW 1027,7 20 0,0
11.07.2020 19:00:00 17,3 11,6 7 4 10 6 NNW 1027,8 - 0,0
11.07.2020 18:00:00 16,8 11,5 6 3 10 6 NNW 1028,1 - 0,0
11.07.2020 17:00:00 16,7 12,0 7 4 12 7 N 1028,2 20 0,0
11.07.2020 16:00:00 17,1 12,8 8 5 15 8 N 1028,4 - 0,0
11.07.2020 15:00:00 17,0 12,1 9 5 14 8 N 1028,4 - 0,0
11.07.2020 14:00:00 17,3 12,8 13 7 17 9 NNE 1028,3 20 0,0
11.07.2020 13:00:00 17,1 12,8 11 6 16 9 NNE 1028,2 - 0,0
11.07.2020 12:00:00 16,9 12,6 10 5 16 9 NNE 1028,1 - 0,0
11.07.2020 11:00:00 16,7 12,4 11 6 16 9 NNE 1027,9 20 0,0
11.07.2020 10:00:00 16,3 12,1 10 6 15 8 NNE 1027,6 - 0,0
11.07.2020 09:00:00 16,0 12,2 11 6 18 10 NE 1027,1 - 0,0
11.07.2020 08:00:00 15,6 11,6 10 6 18 10 NE 1026,5 14 0,0
11.07.2020 07:00:00 14,7 11,3 13 7 26 14 NE 1025,7 - 0,0
11.07.2020 06:00:00 14,4 11,4 19 11 29 16 NNE 1025,2 - 0,0
11.07.2020 05:00:00 14,7 11,3 23 12 31 17 N 1024,9 14 0,0
11.07.2020 04:00:00 14,7 11,5 22 12 35 19 N 1024,8 - 0,0
11.07.2020 03:00:00 14,9 11,3 27 15 36 19 NNW 1024,8 - 0,0
11.07.2020 02:00:00 15,2 10,6 25 14 34 18 NNW 1024,5 14 0,0
11.07.2020 01:00:00 15,3 11,3 25 14 33 18 NNW 1024,4 - 0,0
11.07.2020 00:00:00 15,2 12,3 21 11 27 14 NW 1023,8 - 0,0
10.07.2020 23:00:00 15,1 11,7 18 10 24 13 WNW 1023,3 15 0,0
10.07.2020 22:00:00 15,3 11,1 16 8 21 11 WNW 1022,6 - 0,0
10.07.2020 21:00:00 16,3 11,2 15 8 20 11 WNW 1022,5 - 0,0
10.07.2020 20:00:00 16,8 12,1 17 9 24 13 WNW 1022,5 15 0,0
10.07.2020 19:00:00 17,2 12,5 19 10 26 14 WNW 1022,0 - 0,0
10.07.2020 18:00:00 17,5 12,8 18 10 26 14 WNW 1021,9 - 0,0
10.07.2020 17:00:00 17,5 12,4 18 10 25 14 WNW 1021,6 15 0,0
10.07.2020 16:00:00 17,5 12,8 16 8 20 11 WNW 1021,6 - 0,0
10.07.2020 15:00:00 17,4 12,9 14 7 24 13 NW 1021,3 - 0,0
10.07.2020 14:00:00 17,0 13,3 22 12 27 15 NW 1020,9 15 0,0
10.07.2020 13:00:00 17,0 13,7 21 12 27 15 NW 1020,5 - 0,0
10.07.2020 12:00:00 16,6 12,9 21 11 30 16 NNW 1019,9 - 0,0
10.07.2020 11:00:00 16,2 13,1 22 12 31 17 NNW 1019,1 12 0,0
10.07.2020 10:00:00 15,7 13,4 24 13 32 18 NNW 1018,7 - 0,0
10.07.2020 09:00:00 15,4 13,6 26 14 34 18 NNW 1018,0 - 0,0
10.07.2020 08:00:00 14,6 13,3 26 14 36 19 NNW 1017,3 12 0,0
10.07.2020 07:00:00 14,8 13,5 20 11 31 17 NNW 1016,6 - 0,0
10.07.2020 06:00:00 14,8 13,7 25 13 33 18 NNW 1015,9 - 0,0
10.07.2020 05:00:00 14,9 13,8 26 14 37 20 NW 1015,3 9 0,0
10.07.2020 04:00:00 14,9 13,6 29 16 38 20 WNW 1015,1 - 0,0
10.07.2020 03:00:00 15,0 13,5 25 14 34 19 WNW 1015,0 - 0,0
10.07.2020 02:00:00 15,0 14,0 21 11 37 20 WNW 1014,9 11 0,0
10.07.2020 01:00:00 15,5 14,9 27 15 36 20 W 1014,6 - 0,0
10.07.2020 00:00:00 15,6 15,0 29 15 47 25 WSW 1014,4 - 0,0
09.07.2020 23:00:00 15,7 14,9 29 16 38 21 WSW 1014,1 9 0,0
09.07.2020 22:00:00 15,7 14,7 28 15 40 21 WSW 1013,8 - 0,0
09.07.2020 21:00:00 15,8 14,5 29 16 42 23 WSW 1013,8 - 0,0
09.07.2020 20:00:00 16,1 14,8 31 17 42 23 WSW 1013,8 9 0,0
09.07.2020 19:00:00 16,9 15,4 24 13 39 21 WSW 1013,5 - 0,0
09.07.2020 18:00:00 16,6 15,5 31 17 45 24 SW 1014,2 - 0,0
09.07.2020 17:00:00 17,1 15,8 33 18 53 29 WSW 1014,2 8 0,0
09.07.2020 16:00:00 17,6 16,1 31 17 43 23 SW 1014,6 - 0,0
09.07.2020 15:00:00 17,1 16,1 29 16 45 24 SW 1014,7 - 0,0
09.07.2020 14:00:00 17,1 16,0 32 18 47 26 SW 1015,0 10 0,0
09.07.2020 13:00:00 16,3 15,3 35 19 46 25 SW 1015,3 - 0,0
09.07.2020 12:00:00 16,4 15,6 30 16 41 22 SW 1015,2 - 0,0
09.07.2020 11:00:00 16,0 15,4 29 15 41 22 SW 1015,3 - 0,0
09.07.2020 10:00:00 16,2 15,6 29 16 43 23 SW 1015,3 - 0,0
09.07.2020 09:00:00 15,5 15,2 27 15 41 22 SW 1015,2 - 0,0
09.07.2020 08:00:00 15,3 15,0 27 15 39 21 SW 1015,5 9 0,0
09.07.2020 07:00:00 15,1 14,8 28 15 41 22 SW 1015,4 - 0,0
09.07.2020 06:00:00 14,7 14,5 28 15 41 22 SW 1015,4 - 0,0
09.07.2020 05:00:00 14,6 14,3 30 16 41 22 SSW 1016,1 7 0,0
09.07.2020 04:00:00 14,7 14,5 29 16 43 23 SW 1016,8 - 0,0
09.07.2020 03:00:00 14,7 14,4 32 17 42 23 SW 1017,1 - 0,0
09.07.2020 02:00:00 15,0 14,7 29 16 41 22 WSW 1017,3 8 0,0
09.07.2020 01:00:00 15,1 14,6 32 17 41 22 WSW 1017,3 - 0,0
09.07.2020 00:00:00 15,2 14,9 33 18 44 24 WSW 1017,4 - 0,0
08.07.2020 23:00:00 15,6 15,1 29 15 42 23 WSW 1017,6 6 0,0
08.07.2020 22:00:00 15,6 15,1 26 14 37 20 WSW 1017,4 - 0,0
08.07.2020 21:00:00 15,9 15,4 29 15 40 22 WSW 1017,7 - 0,0
08.07.2020 20:00:00 16,0 15,5 29 16 42 23 WSW 1017,8 5 0,0
08.07.2020 19:00:00 16,3 15,5 26 14 40 21 WSW 1018,0 - 0,0
08.07.2020 18:00:00 16,6 15,6 27 15 40 22 WSW 1018,3 - 0,0
08.07.2020 17:00:00 16,8 15,7 27 15 40 22 WSW 1018,6 10 0,0
08.07.2020 16:00:00 17,0 15,7 29 16 43 23 WSW 1018,6 - 0,0
08.07.2020 15:00:00 17,3 15,6 32 18 45 25 WSW 1018,5 - 0,0
08.07.2020 14:00:00 17,3 16,0 34 18 44 24 WSW 1018,3 10 0,0
08.07.2020 13:00:00 17,0 15,9 35 19 44 24 WSW 1018,4 - 0,0
08.07.2020 12:00:00 16,6 15,6 32 17 43 23 SW 1018,4 - 0,0
08.07.2020 11:00:00 16,2 15,4 31 17 45 24 SW 1018,2 5 0,0

tt = temperature
td = dewpoint
ff = wind speed
fx = gusts
dd = wind direction
ppp = reduced air pressure
vv = visibility
rr = precipitation

Next stations